TimeCST,TemperatureF,Dew PointF,Humidity,Sea Level PressureIn,VisibilityMPH,Wind Direction,Wind SpeedMPH,Gust SpeedMPH,PrecipitationIn,Events,Conditions,WindDirDegrees,DateUTC
12:53 AM,30.0,25.0,82,30.37,10.0,West,6.9,-,N/A,,Clear,270,2013-01-17 06:53:00
1:53 AM,28.0,24.1,85,30.39,10.0,West,5.8,-,N/A,,Clear,280,2013-01-17 07:53:00
2:53 AM,27.0,24.1,89,30.42,10.0,West,6.9,-,N/A,,Clear,270,2013-01-17 08:53:00
3:53 AM,27.0,23.0,85,30.43,10.0,West,8.1,-,N/A,,Clear,270,2013-01-17 09:53:00
4:53 AM,26.1,21.9,84,30.44,10.0,West,3.5,-,N/A,,Clear,260,2013-01-17 10:53:00
6:53 AM,24.1,21.0,88,30.48,10.0,West,6.9,-,N/A,,Clear,260,2013-01-17 12:53:00
7:53 AM,25.0,21.0,85,30.49,10.0,West,8.1,-,N/A,,Clear,280,2013-01-17 13:53:00
8:53 AM,28.0,21.9,78,30.51,10.0,West,9.2,-,N/A,,Clear,280,2013-01-17 14:53:00
9:53 AM,36.0,26.1,67,30.53,10.0,WNW,10.4,-,N/A,,Clear,300,2013-01-17 15:53:00
10:53 AM,42.1,24.1,49,30.53,10.0,NW,8.1,-,N/A,,Clear,310,2013-01-17 16:53:00
11:53 AM,46.0,25.0,44,30.49,10.0,WNW,9.2,-,N/A,,Clear,300,2013-01-17 17:53:00
12:53 PM,48.9,24.1,38,30.46,10.0,West,11.5,-,N/A,,Clear,280,2013-01-17 18:53:00
1:53 PM,53.1,24.1,32,30.43,10.0,West,5.8,-,N/A,,Clear,280,2013-01-17 19:53:00
2:53 PM,54.0,21.9,29,30.41,10.0,WNW,8.1,-,N/A,,Clear,300,2013-01-17 20:53:00
3:53 PM,55.0,21.9,28,30.40,10.0,NNW,5.8,-,N/A,,Clear,340,2013-01-17 21:53:00
4:53 PM,53.1,23.0,31,30.41,10.0,NNW,3.5,-,N/A,,Clear,330,2013-01-17 22:53:00
5:53 PM,44.1,21.9,42,30.42,10.0,East,3.5,-,N/A,,Clear,90,2013-01-17 23:53:00
6:53 PM,36.0,23.0,59,30.43,10.0,Calm,Calm,-,N/A,,Clear,0,2013-01-18 00:53:00
7:53 PM,36.0,23.0,59,30.42,10.0,SW,3.5,-,N/A,,Clear,220,2013-01-18 01:53:00
8:53 PM,35.1,23.0,61,30.40,10.0,SW,5.8,-,N/A,,Clear,220,2013-01-18 02:53:00
9:53 PM,36.0,24.1,62,30.38,10.0,SW,5.8,-,N/A,,Clear,230,2013-01-18 03:53:00
10:53 PM,37.0,24.1,59,30.34,10.0,North,-9999.0,-,N/A,,Clear,0,2013-01-18 04:53:00
11:53 PM,35.1,24.1,64,30.32,10.0,SW,9.2,-,N/A,,Clear,220,2013-01-18 05:53:00